User: anonymous   Login
Location: Albany
(35.0000°S, 118.0000°E)
Time: 13:01:38
(UTC-05:00)
Language:

Cosmos 2227 Rocket - Orbit

View from above orbital plane
View from above orbital plane
View from above satellite
View from above satellite

Ground track
Ground track

The orbit data is extracted from the following two-line orbital elements,

1 22285U 92093B   16341.31618678  .00000234  00000-0  14531-3 0  9993
2 22285  71.0221 256.8722 0002449  38.9763 321.1536 14.15001585235259
Epoch (UTC): 06 December 2016 07:35:18
Eccentricity: 0.0002449
inclination: 71.0221°
perigee height: 840 km
apogee height: 844 km
right ascension of ascending node: 256.8722°
argument of perigee: 38.9763°
revolutions per day: 14.15001585
mean anomaly at epoch: 321.1536°
orbit number at epoch: 23525

The dashed part of the orbit path shows where the satellite is in the earth's shadow,  

DLR